Location: Glendale
(37.4556°N, 88.6714°W)
Time: 10:13:19
(UTC+00:00)

Helios 1A Rocket - Pass Details

Date: 08 December 2019
Orbit: 564 x 587 km, 98.3° (Epoch: 27 January)

Event Time Altitude Azimuth Distance (km) Brightness Sun altitude
Rises 11:29:35 0° 13° (NNE) 2,771 6.4 -16.8°
Reaches altitude 10° 11:31:44 10° 14° (NNE) 1,867 5.5 -16.4°
Maximum altitude 11:35:46 84° 104° (ESE) 572 2.9 -15.6°
Drops below altitude 10° 11:39:47 10° 192° (SSW) 1,850 5.6 -14.8°
Sets 11:41:54 0° 193° (SSW) 2,742 6.5 -14.4°
